User: anonymous   Login
Location: Cheching
(60.0667°N, 164.2167°W)
Time: 12:35:17
(UTC+00:00)
Language:

LilacSat-2 - Orbit

View from above orbital plane
View from above orbital plane
View from above satellite
View from above satellite

Ground track
Ground track

The orbit data is extracted from the following two-line orbital elements,

1 40908U 15049K   21138.22748325  .00000457  00000-0  28470-4 0  9999
2 40908  97.5035 138.6328 0014496 309.1342 179.5531 15.14410700312650
Epoch (UTC): 18 May 2021 05:27:34
Eccentricity: 0.0014496
inclination: 97.5035°
perigee height: 513 km
apogee height: 533 km
right ascension of ascending node: 138.6328°
argument of perigee: 309.1342°
revolutions per day: 15.14410700
mean anomaly at epoch: 179.5531°
orbit number at epoch: 31265

The dashed part of the orbit path shows where the satellite is in the earth's shadow,  

DLR